Other Public Products
Issued by NWS Grand Forks, ND

Home | Current Version | Previous Version | Text Only | Print | Product List | Glossary Off
Versions: 1 2 3 4 5 6 7 8 9 10 11 12 13 14 15 16 17 18 19 20 21 22 23 24 25 26 27 28 29 30 31 32 33 34 35 36 37 38 39 40 41 42 43 44 45 46 47 48 49 50

050
FPUS83 KFGF 232310
OPUFGF
PRAIRIE TO PINES WEATHER ROUNDUP
NATIONAL WEATHER SERVICE EASTERN NORTH DAKOTA/GRAND FORKS ND
600 PM CDT THU MAR 23 2017

 **SATELLITE DATA USED TO AUGMENT SKY COVER AT AUTOMATED STATIONS**
 *****  WEATHER ACROSS EASTERN NORTH DAKOTA  *****

CITY           SKY/WX    TMP DP  RH WIND       PRES   REMARKS
GRAND FORKS    CLOUDY    38  36  92 CALM      29.80R
GRAND FORKS AF CLOUDY    36  36 100 E3        29.80R
GRAND CITY NWS NOT AVBL
BUXTON         NOT AVBL
DEVILS LAKE    CLOUDY    35  33  92 CALM      29.76S
FARGO          LGT RAIN  37  36  96 SE9       29.81R FOG
WAHPETON ARPT  CLOUDY    34  32  93 E8        29.79S
$$

 *****  WEATHER ACROSS CENTRAL AND WESTERN NORTH DAKOTA  *****

CITY           SKY/WX    TMP DP  RH WIND       PRES   REMARKS
JAMESTOWN      CLOUDY    41  37  86 SE8       29.74R
BISMARCK       LGT RAIN  42  38  85 CALM      29.77R
MINOT          FAIR      43  34  70 NW10      29.78R
MINOT AFB      FAIR      40  33  76 N8        29.77R
GARRISON         N/A     44  36  73 NW6       29.75S
WILLISTON      FAIR      56  36  47 E7        29.77R
DICKINSON      PTSUNNY   51  33  50 CALM      29.74R
HETTINGER      LGT RAIN  43  40  89 NE8       29.79R
$$

 *****  OTHER OBSERVATIONS NORTHEAST NORTH DAKOTA  *****

CITY           SKY/WX    TMP DP  RH WIND       PRES   REMARKS
WALHALLA       NOT AVBL
LANGDON        NOT AVBL
CAVALIER       NOT AVBL
GRAFTON        NOT AVBL
CANDO          NOT AVBL
FORT TOTTEN      N/A     36  36 100 CALM      29.95S
ROLLA          FAIR      36  36 100 NW9       29.76S
RUGBY          NOT AVBL
 ***** THE ABOVE OBSERVATIONS ARE NON NWS ARE NOT QUALITY
        CONTROLLED AND MAY MIS-REPORT RAIN FOR SNOW...
$$

 *****  OTHER OBSERVATIONS SOUTHEAST NORTH DAKOTA *****

CITY           SKY/WX    TMP DP  RH WIND       PRES   REMARKS
COOPERSTOWN    CLOUDY    36  36 100 N6        29.78R FOG
VALLEY CITY    NOT AVBL
OAKES          NOT AVBL
GWINNER        FOG       37  37 100 MISG      29.75F VSB 3/4
SHEYENNE NWR     N/A     36  36 100 SE7       29.95S
BUFFALO        NOT AVBL
WYNDMERE       NOT AVBL
 ***** THE ABOVE OBSERVATIONS ARE NON NWS ARE NOT QUALITY
       CONTROLLED AND MAY MIS-REPORT RAIN FOR SNOW...
$$

  *****  WEATHER ACROSS NORTHERN MINNESOTA  *****

CITY           SKY/WX    TMP DP  RH WIND       PRES   REMARKS
FLAG ISLAND    CLOUDY    34  30  86 S9        29.77F
WARROAD        CLOUDY    37  34  87 SW5       29.79S
ROSEAU         PTSUNNY   37  34  87 SW5       29.79R
HALLOCK        CLOUDY    36  34  93 S7        29.80R
THF RVR FALLS  CLOUDY   N/A N/A N/A S5        29.81R
HALSTAD          N/A     36  34  93 S12         N/A
FOSSTON        CLOUDY    36  30  80 S10       29.82R
BAUDETTE       CLOUDY    34  32  92 SE9       29.76F
WASKISH        LGT RAIN  36  34  93 SE7       29.77F
CROOKSTON      MIX PCPN  36  36 100 S9        29.80R
$$
  *****  WEATHER ACROSS CENTRAL AND WEST MINNESOTA  *****

CITY           SKY/WX    TMP DP  RH WIND       PRES   REMARKS
BEMIDJI        RAIN      35  32  89 SE8       29.79F
PARK RAPIDS    TSTM      36  29  75 SW12      29.84R
WADENA         MIX PCPN  34  32  93 SE8       29.81S
DETROIT LAKES  RAIN      34  34 100 SE7       29.83R
MOORHEAD       DRIZZLE   36  34  93 SE5       29.82R
FERGUS FALLS   CLOUDY    36  36 100 SE9       29.84R FOG
ELBOW LAKE     CLOUDY    34  34  99 SE7       29.78F FOG
MORRIS MN      CLOUDY    37  36  93 SE15      29.75F FOG
STAPLES        CLOUDY    34  32  93 CALM      29.83S FOG
WHEATON        CLOUDY    36  36 100 E14       29.78F FOG
$$
  *****  WEATHER ELSEWHERE ACROSS MINNESOTA  *****

CITY           SKY/WX    TMP DP  RH WIND       PRES   REMARKS
DULUTH         LGT RAIN  34  27  75 SE9       29.88F
INTRNTL FALLS  LGT RAIN  34  31  88 S3        29.83S FOG
ELY            LGT SNOW  30  30 100 S5        29.87F
CLOQUET        LGT SNOW  34  27  75 S6        29.87F
BRAINERD       LGT RAIN  37  26  64 SE10      29.84S
HIBBING        CLOUDY    32  30  92 SE7       29.85F
ALEXANDRIA     CLOUDY    34  33  96 SE13      29.79F FOG     WCI  25
SAINT CLOUD    LGT RAIN  35  35 100 E5        29.82F FOG
MINNEAPOLIS    LGT RAIN  38  33  82 SE12G23   29.84F
$$

  *****  WEATHER ACROSS SOUTH DAKOTA  *****

CITY           SKY/WX    TMP DP  RH WIND       PRES   REMARKS
SIOUX FALLS    CLOUDY    49  42  77 E7        29.68S
BROOKINGS      CLOUDY    41  39  93 SE10      29.69S
WATERTOWN      CLOUDY    39  38  96 SE10      29.70F FOG
HURON          CLOUDY    45  43  93 E9        29.67R
SISSETON         N/A     37  37 100 S10       29.75S
ABERDEEN       CLOUDY    44  35  70 NE5       29.72R
MITCHELL       CLOUDY    49  46  90 SE7       29.66R FOG
PIERRE         PTSUNNY   60  42  51 NE6       29.62R
MOBRIDGE       FAIR      50  37  61 N18       29.69R
RAPID CITY     LGT RAIN  47  42  83 NW25G33   29.73R
$$

  *****  SOME WEATHER IN NEARBY STATES *****

CITY           SKY/WX    TMP DP  RH WIND       PRES   REMARKS
GLASGOW MT     FAIR      59  29  31 MISG      29.79R
GREAT FALLS MT FAIR      56  16  20 W16       29.86R
CHEYENNE WY    CLOUDY    59  28  30 NW17G33   29.64R
SCOTTSBLUFF NE CLOUDY    63  38  39 N16G23    29.59R THUNDER
OMAHA NE       PTSUNNY   75  51  43 S14       29.65F
DES MOINES IA  FAIR      57  38  48 E10       29.80F
DAVENPORT IA   FAIR      44  34  67 SE20      30.00F
CHICAGO IL     CLOUDY    50  25  37 S14       30.11F
EAU CLAIRE WI  CLOUDY    42  24  49 SE12      29.91F
LA CROSSE WI   TSTM      41  35  79 S7        29.98R
$$

  *****  SOME NATIONAL WEATHER *****

CITY           SKY/WX    TMP DP  RH WIND       PRES   REMARKS
LA GUARDIA NY  FAIR      44   4  19 W8G16     30.50S
RALEIGH NC     FAIR      53  17  24 S7        30.51S
ATLANTA GA     MOCLDY    63  37  38 E10       30.37S
NEW ORLEANS LA FAIR      79  64  60 SE10      30.16S
OKLAHOMA CITY  FAIR      82  44  26 S29G44    29.77F
ALBUQUERQUE NM PTSUNNY   48  28  46 SE13G24   29.82F
SALT LAKE CITY LGT RAIN  38  34  85 N6        29.97R
LOS ANGELES CA FAIR      64  42  44 W21       30.11F
BOISE ID       FAIR      55  22  27 NW13      30.01S
SEATTLE WA     PTSUNNY   56  33  42 S6        29.95F
$$

*** WEATHER ACROSS MANITOBA...SASKATCHEWAN AND ONTARIO ***
                ***ONTARIO***

CITY           SKY/WX    TMP DP  RH WIND       PRES   REMARKS
GERALDTON      CLOUDY    32  23  69 S18G31    29.85F WCI  20
THUNDER BAY    LGT SNOW  32  32 100 S3        29.95S VSB 3/4
SIOUX LOOKOUT  CLOUDY    37  25  60 SW10      29.76F
TORONTO        MOCLDY    34  12  40 SE8       30.40F
BIG TROUT LK   LGT RAIN  32  30  93 W7        29.64R FOG
PICKLE LAKE    PTSUNNY   41  25  52 SW16G25   29.68S
DRYDEN         CLOUDY    37  28  70 SW15G22   29.76S
KENORA         CLOUDY    36  30  80 SW12G21   29.77S
$$
                *** MANITOBA***

CITY           SKY/WX    TMP DP  RH WIND       PRES   REMARKS
BRANDON        PTSUNNY   37  32  81 W8        29.78R
DAUPHIN        SUNNY     37  27  65 NE12      29.83R
ISLAND LAKE    NOT AVBL
PILOT MOUND      N/A     36  32  87 N6          N/A
THE PAS        CLOUDY    27  19  74 NW8       29.92R WCI  18
THOMPSON       FLURRIES  27  19  74 N16G22    29.88R WCI  14
WINNIPEG       PTSUNNY   37  32  81 SW6       29.79R
LYNN LAKE      FLURRIES  23   9  54 NE17      29.96R WCI   9
CHURCHILL      CRYSTALS   1  -2  85 N24G31    30.07R WCI -22
GILLAM         MOSUNNY   18   9  68 N22G29    29.88R WCI   0
$$
                ***SASKATCHEWAN***

CITY           SKY/WX    TMP DP  RH WIND       PRES   REMARKS
ESTEVAN        MOSUNNY   39  34  81 NW8       29.80R
KINDERSLEY     MOSUNNY   45  30  57 NE3       29.82R
LLOYDMINSTER   PTSUNNY   27  25  93 N6        29.87S WCI  20
PRINCE ALBERT  PTSUNNY   30  21  69 NE12      29.91R WCI  21
REGINA         MOSUNNY   46  28  49 N9        29.81R
YORKTON        SUNNY     36  25  64 N9        29.83R



USA.gov is the U.S. government's official web portal to all federal, state and local government web resources and services.